time, Switch, Flow(0), Analog(2)
yyyy/mm/dd HH:MM:SS.fff, True=FILTERED|False=TOTAL, L/min, V
2023/06/11 06:00:01.577, True, 4.642, 0.140078
2023/06/11 06:00:02.081, True, 4.642, 0.140993
2023/06/11 06:00:02.577, True, 4.717, 0.141527
2023/06/11 06:00:03.080, True, 4.642, 0.139010
2023/06/11 06:00:03.585, True, 3.979, 0.141680
2023/06/11 06:00:04.089, True, 2.321, 0.139162
2023/06/11 06:00:04.584, True, 1.685, 0.141146
2023/06/11 06:00:05.089, True, 0.663, 0.142138
2023/06/11 06:00:05.585, True, 1.011, 0.139696
2023/06/11 06:00:06.089, True, 0.663, 0.139239
2023/06/11 06:00:06.592, True, 0.663, 0.140612
2023/06/11 06:00:07.088, True, 0.674, 0.141451
2023/06/11 06:00:07.592, True, 0.996, 0.139162
2023/06/11 06:00:08.097, True, 0.663, 0.139239
2023/06/11 06:00:08.600, True, 0.662, 0.141680
2023/06/11 06:00:09.097, True, 0.674, 0.139620
2023/06/11 06:00:09.601, True, 0.664, 0.139925
2023/06/11 06:00:10.105, True, 0.662, 0.139010
2023/06/11 06:00:10.609, True, 0.663, 0.139696
2023/06/11 06:00:11.105, True, 0.674, 0.137713
2023/06/11 06:00:11.609, True, 0.995, 0.138018
2023/06/11 06:00:12.112, True, 0.332, 0.139925
2023/06/11 06:00:12.609, True, 1.012, 0.142138
2023/06/11 06:00:13.113, True, 0.663, 0.139010
2023/06/11 06:00:13.617, True, 0.663, 0.140688
2023/06/11 06:00:14.121, True, 0.663, 0.141146
2023/06/11 06:00:14.616, True, 0.674, 0.137560
2023/06/11 06:00:15.121, True, 0.663, 0.140307
2023/06/11 06:00:15.617, True, 0.674, 0.138399
2023/06/11 06:00:16.121, True, 0.663, 0.137942
2023/06/11 06:00:16.624, True, 0.995, 0.140459
2023/06/11 06:00:17.129, True, 0.663, 0.140307
2023/06/11 06:00:17.625, True, 0.337, 0.138552
2023/06/11 06:00:18.129, True, 0.663, 0.137942
2023/06/11 06:00:18.625, True, 1.011, 0.139849
2023/06/11 06:00:19.129, True, 0.663, 0.139925
2023/06/11 06:00:19.633, True, 0.663, 0.138705
2023/06/11 06:00:20.129, True, 0.674, 0.140230
2023/06/11 06:00:20.633, True, 0.663, 0.139849
2023/06/11 06:00:21.136, True, 0.663, 0.141070
2023/06/11 06:00:21.633, True, 0.674, 0.139010
2023/06/11 06:00:22.137, True, 0.663, 0.139544
2023/06/11 06:00:22.641, True, 0.664, 0.140078
2023/06/11 06:00:23.137, True, 0.673, 0.137865
2023/06/11 06:00:23.641, True, 0.663, 0.140383
2023/06/11 06:00:24.144, True, 0.664, 0.139086
2023/06/11 06:00:24.641, True, 0.674, 0.139849
2023/06/11 06:00:25.145, True, 0.663, 0.140917
2023/06/11 06:00:25.649, True, 0.663, 0.140307
2023/06/11 06:00:26.145, True, 0.674, 0.140230
2023/06/11 06:00:26.649, True, 0.663, 0.138933
2023/06/11 06:00:27.153, True, 0.663, 0.139162
2023/06/11 06:00:27.649, True, 0.674, 0.141833
2023/06/11 06:00:28.153, True, 0.663, 0.140078
2023/06/11 06:00:28.657, True, 0.995, 0.141680
2023/06/11 06:00:29.152, True, 0.675, 0.139544
2023/06/11 06:00:29.657, True, 0.663, 0.141070
2023/06/11 06:00:30.161, True, 0.663, 0.138170
2023/06/11 06:00:30.656, True, 0.674, 0.140307
2023/06/11 06:00:31.160, True, 0.663, 0.139467
2023/06/11 06:00:31.664, True, 0.663, 0.139239
2023/06/11 06:00:32.161, True, 0.674, 0.138933
2023/06/11 06:00:32.665, True, 0.663, 0.139849
2023/06/11 06:00:33.169, True, 0.663, 0.138857
2023/06/11 06:00:33.664, True, 0.674, 0.136416
2023/06/11 06:00:34.169, True, 0.664, 0.138476
2023/06/11 06:00:34.665, True, 0.674, 0.140459
2023/06/11 06:00:35.169, True, 0.663, 0.140459
2023/06/11 06:00:35.673, True, 0.664, 0.138857
2023/06/11 06:00:36.176, True, 0.995, 0.139391
2023/06/11 06:00:36.673, True, 0.673, 0.139773
2023/06/11 06:00:37.177, True, 0.663, 0.140078
2023/06/11 06:00:37.681, True, 0.663, 0.140764
2023/06/11 06:00:38.177, True, 0.337, 0.139925
2023/06/11 06:00:38.681, True, 0.663, 0.138323
2023/06/11 06:00:39.184, True, 0.995, 0.138781
2023/06/11 06:00:39.680, True, 0.674, 0.140536
2023/06/11 06:00:40.185, True, 0.663, 0.140383
2023/06/11 06:00:40.689, True, 0.663, 0.140383
2023/06/11 06:00:41.185, True, 0.674, 0.140688
2023/06/11 06:00:41.689, True, 0.663, 0.141222
2023/06/11 06:00:42.193, True, 0.663, 0.138247
2023/06/11 06:00:42.689, True, 0.674, 0.140841
2023/06/11 06:00:43.193, True, 0.663, 0.139849
2023/06/11 06:00:43.696, True, 0.663, 0.139544
2023/06/11 06:00:44.192, True, 0.674, 0.139467
2023/06/11 06:00:44.697, True, 0.663, 0.138552
2023/06/11 06:00:45.193, True, 0.674, 0.139239
2023/06/11 06:00:45.697, True, 0.663, 0.140078
2023/06/11 06:00:46.201, True, 0.664, 0.138857
2023/06/11 06:00:46.697, True, 1.009, 0.139239
2023/06/11 06:00:47.201, True, 0.663, 0.140002
2023/06/11 06:00:47.705, True, 0.663, 0.140612
2023/06/11 06:00:48.200, True, 0.674, 0.139239
2023/06/11 06:00:48.705, True, 0.663, 0.136492
2023/06/11 06:00:49.209, True, 0.663, 0.139239
2023/06/11 06:00:49.705, True, 0.674, 0.138857
2023/06/11 06:00:50.209, True, 0.664, 0.140612
2023/06/11 06:00:50.713, True, 0.662, 0.140307
2023/06/11 06:00:51.209, True, 0.674, 0.139315
2023/06/11 06:00:51.712, True, 0.663, 0.139925
2023/06/11 06:00:52.217, True, 0.663, 0.139315
2023/06/11 06:00:52.721, True, 0.663, 0.141375
2023/06/11 06:00:53.217, True, 0.674, 0.137865
2023/06/11 06:00:53.721, True, 0.663, 0.141299
2023/06/11 06:00:54.225, True, 0.664, 0.141375
2023/06/11 06:00:54.721, True, 0.673, 0.141375
2023/06/11 06:00:55.225, True, 0.995, 0.141146
2023/06/11 06:00:55.729, True, 0.663, 0.140307
2023/06/11 06:00:56.225, True, 0.675, 0.139544
2023/06/11 06:00:56.729, True, 0.662, 0.141527
2023/06/11 06:00:57.233, True, 0.332, 0.138247
2023/06/11 06:00:57.729, True, 0.674, 0.139620
2023/06/11 06:00:58.233, True, 0.995, 0.137865
2023/06/11 06:00:58.736, True, 0.663, 0.138170
2023/06/11 06:00:59.233, True, 0.674, 0.140764
2023/06/11 06:00:59.737, True, 0.663, 0.139162
2023/06/11 06:01:00.241, True, 0.663, 0.142748
2023/06/11 06:01:00.737, True, 0.337, 0.138323
2023/06/11 06:01:01.241, True, 0.663, 0.140612
2023/06/11 06:01:01.745, True, 0.995, 0.138781
2023/06/11 06:01:02.241, True, 0.674, 0.139010
2023/06/11 06:01:02.745, True, 0.663, 0.137865
2023/06/11 06:01:03.249, True, 0.663, 0.138705
2023/06/11 06:01:03.753, True, 0.663, 0.137560
2023/06/11 06:01:04.249, True, 0.674, 0.139773
2023/06/11 06:01:04.753, True, 0.663, 0.138705
2023/06/11 06:01:05.257, True, 0.663, 0.138705
2023/06/11 06:01:05.753, True, 0.674, 0.139773
2023/06/11 06:01:06.257, True, 0.663, 0.139010
2023/06/11 06:01:06.761, True, 0.995, 0.138170
2023/06/11 06:01:07.256, True, 0.674, 0.140917
2023/06/11 06:01:07.760, True, 0.663, 0.140764
2023/06/11 06:01:08.265, True, 0.663, 0.139239
2023/06/11 06:01:08.761, True, 0.674, 0.137942
2023/06/11 06:01:09.265, True, 0.332, 0.138399
2023/06/11 06:01:09.768, True, 0.996, 0.140307
2023/06/11 06:01:10.265, True, 0.673, 0.139086
2023/06/11 06:01:10.769, True, 0.663, 0.139544
2023/06/11 06:01:11.273, True, 0.663, 0.140002
2023/06/11 06:01:11.769, True, 0.674, 0.137407
2023/06/11 06:01:12.273, True, 0.664, 0.139620
2023/06/11 06:01:12.769, True, 0.674, 0.140383
2023/06/11 06:01:13.272, True, 0.663, 0.139467
2023/06/11 06:01:13.777, True, 0.663, 0.141146
2023/06/11 06:01:14.272, True, 0.674, 0.139391
2023/06/11 06:01:14.777, True, 0.663, 0.139620
2023/06/11 06:01:15.281, True, 0.663, 0.138781
2023/06/11 06:01:15.777, True, 0.674, 0.139544
2023/06/11 06:01:16.281, True, 0.663, 0.138552
2023/06/11 06:01:16.785, True, 0.663, 0.140459
2023/06/11 06:01:17.281, True, 0.674, 0.139696
2023/06/11 06:01:17.785, True, 0.995, 0.139620
2023/06/11 06:01:18.289, True, 0.332, 0.140154
2023/06/11 06:01:18.784, True, 1.011, 0.139086
2023/06/11 06:01:19.289, True, 0.663, 0.137179
2023/06/11 06:01:19.793, True, 0.663, 0.138781
2023/06/11 06:01:20.288, True, 0.674, 0.139696
2023/06/11 06:01:20.793, True, 0.663, 0.141604
2023/06/11 06:01:21.296, True, 0.664, 0.139315
2023/06/11 06:01:21.793, True, 0.673, 0.141985
2023/06/11 06:01:22.297, True, 0.663, 0.141146
2023/06/11 06:01:22.801, True, 0.663, 0.136568
2023/06/11 06:01:23.297, True, 0.674, 0.140764
2023/06/11 06:01:23.801, True, 0.663, 0.143282
2023/06/11 06:01:24.305, True, 0.664, 0.140078
2023/06/11 06:01:24.801, True, 0.673, 0.140993
2023/06/11 06:01:25.304, True, 0.663, 0.141070
2023/06/11 06:01:25.809, True, 0.663, 0.142748
2023/06/11 06:01:26.305, True, 0.674, 0.142672
2023/06/11 06:01:26.809, True, 0.663, 0.140841
2023/06/11 06:01:27.313, True, 0.995, 0.140688
2023/06/11 06:01:27.809, True, 0.674, 0.144884
2023/06/11 06:01:28.312, True, 0.332, 0.142290
2023/06/11 06:01:28.816, True, 0.663, 0.143130
2023/06/11 06:01:29.313, True, 0.674, 0.142519
2023/06/11 06:01:29.817, True, 0.663, 0.144503
2023/06/11 06:01:30.313, True, 0.674, 0.143587
2023/06/11 06:01:30.816, True, 0.995, 0.144961
2023/06/11 06:01:31.321, True, 0.663, 0.145266
2023/06/11 06:01:31.824, True, 0.663, 0.143969
2023/06/11 06:01:32.320, True, 0.337, 0.145647
2023/06/11 06:01:32.825, True, 0.664, 0.146792
2023/06/11 06:01:33.328, True, 0.993, 0.145037
2023/06/11 06:01:33.824, True, 0.337, 0.145953
2023/06/11 06:01:34.328, True, 0.993, 0.145495
2023/06/11 06:01:34.832, True, 0.663, 0.147326
2023/06/11 06:01:35.328, True, 0.674, 0.149157
2023/06/11 06:01:35.832, True, 0.663, 0.147326
2023/06/11 06:01:36.337, True, 0.663, 0.146334
2023/06/11 06:01:36.841, True, 0.664, 0.146487
2023/06/11 06:01:37.336, True, 0.673, 0.147250
2023/06/11 06:01:37.840, True, 0.331, 0.150149
2023/06/11 06:01:38.344, True, 0.995, 0.147097
2023/06/11 06:01:38.840, True, 0.674, 0.149081
2023/06/11 06:01:39.344, True, 0.663, 0.149081
2023/06/11 06:01:39.849, True, 0.663, 0.150530
2023/06/11 06:01:40.344, True, 0.674, 0.150072
2023/06/11 06:01:40.848, True, 0.663, 0.148852
2023/06/11 06:01:41.352, True, 0.664, 0.150683
2023/06/11 06:01:41.849, True, 0.673, 0.149920
2023/06/11 06:01:42.352, True, 0.663, 0.151751
2023/06/11 06:01:42.856, True, 0.663, 0.151522
2023/06/11 06:01:43.360, True, 0.664, 0.149538
2023/06/11 06:01:43.856, True, 0.674, 0.150378
2023/06/11 06:01:44.360, True, 0.663, 0.148852
2023/06/11 06:01:44.856, True, 0.674, 0.148547
2023/06/11 06:01:45.360, True, 0.332, 0.149462
2023/06/11 06:01:45.864, True, 0.662, 0.146639
2023/06/11 06:01:46.360, True, 1.011, 0.148394
2023/06/11 06:01:46.864, True, 0.663, 0.150378
2023/06/11 06:01:47.368, True, 0.332, 0.148547
2023/06/11 06:01:47.872, True, 0.664, 0.149310
2023/06/11 06:01:48.368, True, 0.674, 0.148241
2023/06/11 06:01:48.872, True, 0.993, 0.152590
2023/06/11 06:01:49.376, True, 0.663, 0.149462
2023/06/11 06:01:49.872, True, 0.674, 0.148852
2023/06/11 06:01:50.376, True, 0.332, 0.149310
2023/06/11 06:01:50.872, True, 0.674, 0.148241
2023/06/11 06:01:51.376, True, 0.995, 0.151446
2023/06/11 06:01:51.880, True, 0.663, 0.150683
2023/06/11 06:01:52.376, True, 0.674, 0.149538
2023/06/11 06:01:52.880, True, 0.663, 0.149538
2023/06/11 06:01:53.384, True, 0.663, 0.150835
2023/06/11 06:01:53.880, True, 0.674, 0.152361
2023/06/11 06:01:54.384, True, 0.663, 0.150378
2023/06/11 06:01:54.888, True, 0.663, 0.151598
2023/06/11 06:01:55.384, True, 0.674, 0.152514
2023/06/11 06:01:55.888, True, 0.663, 0.151598
2023/06/11 06:01:56.392, True, 0.663, 0.153048
2023/06/11 06:01:56.896, True, 0.663, 0.153811
2023/06/11 06:01:57.392, True, 0.674, 0.154650
2023/06/11 06:01:57.896, True, 0.663, 0.154192
2023/06/11 06:01:58.400, True, 0.663, 0.151904
2023/06/11 06:01:58.896, True, 0.674, 0.154269
2023/06/11 06:01:59.400, True, 0.663, 0.152819
2023/06/11 06:01:59.904, True, 0.663, 0.154650
2023/06/11 06:02:00.400, True, 0.674, 0.154040
2023/06/11 06:02:00.904, True, 0.663, 0.154574
2023/06/11 06:02:01.408, True, 0.663, 0.156405
2023/06/11 06:02:01.904, True, 0.674, 0.155642
2023/06/11 06:02:02.408, True, 0.664, 0.154879
2023/06/11 06:02:02.904, True, 0.674, 0.154040
2023/06/11 06:02:03.408, True, 0.663, 0.157702
2023/06/11 06:02:03.912, True, 0.663, 0.153887
2023/06/11 06:02:04.408, True, 1.011, 0.156786
2023/06/11 06:02:04.912, True, 0.664, 0.156558
2023/06/11 06:02:05.416, True, 0.662, 0.154269
2023/06/11 06:02:05.912, True, 0.674, 0.155413
2023/06/11 06:02:06.417, True, 0.332, 0.153658
2023/06/11 06:02:06.920, True, 0.664, 0.153964
2023/06/11 06:02:07.416, True, 0.673, 0.155337
2023/06/11 06:02:07.920, True, 0.664, 0.156023
2023/06/11 06:02:08.424, True, 0.663, 0.157549
2023/06/11 06:02:08.920, True, 0.674, 0.155184
2023/06/11 06:02:09.424, True, 0.663, 0.156329
2023/06/11 06:02:09.920, True, 0.674, 0.157244
2023/06/11 06:02:10.424, True, 0.995, 0.156100
2023/06/11 06:02:10.928, True, 0.663, 0.156710
2023/06/11 06:02:11.424, True, 0.674, 0.153658
2023/06/11 06:02:11.928, True, 0.665, 0.156558
2023/06/11 06:02:12.432, True, 0.662, 0.156252
2023/06/11 06:02:12.928, True, 0.674, 0.153506
2023/06/11 06:02:13.432, True, 0.663, 0.152209
2023/06/11 06:02:13.936, True, 0.663, 0.155642
2023/06/11 06:02:14.432, True, 0.674, 0.155261
2023/06/11 06:02:14.936, True, 0.663, 0.154116
2023/06/11 06:02:15.440, True, 0.663, 0.154726
2023/06/11 06:02:15.936, True, 0.674, 0.157473
2023/06/11 06:02:16.440, True, 0.663, 0.154345
2023/06/11 06:02:16.944, True, 0.663, 0.156176
2023/06/11 06:02:17.440, True, 0.674, 0.154269
2023/06/11 06:02:17.944, True, 0.663, 0.154955
2023/06/11 06:02:18.448, True, 0.663, 0.153735
2023/06/11 06:02:18.944, True, 0.674, 0.154955
2023/06/11 06:02:19.448, True, 0.663, 0.156558
2023/06/11 06:02:19.952, True, 0.663, 0.153582
2023/06/11 06:02:20.448, True, 0.674, 0.157702
2023/06/11 06:02:20.952, True, 0.663, 0.156252
2023/06/11 06:02:21.448, True, 0.674, 0.154040
2023/06/11 06:02:21.952, True, 0.663, 0.155337
2023/06/11 06:02:22.456, True, 0.663, 0.154955
2023/06/11 06:02:22.952, True, 0.674, 0.155413
2023/06/11 06:02:23.456, True, 0.663, 0.152209
2023/06/11 06:02:23.960, True, 0.663, 0.155108
2023/06/11 06:02:24.456, True, 0.674, 0.153887
2023/06/11 06:02:24.960, True, 0.663, 0.155032
2023/06/11 06:02:25.464, True, 0.664, 0.154726
2023/06/11 06:02:25.959, True, 0.674, 0.155337
2023/06/11 06:02:26.464, True, 0.663, 0.154040
2023/06/11 06:02:26.968, True, 0.663, 0.155947
2023/06/11 06:02:27.464, True, 0.674, 0.152056
2023/06/11 06:02:27.968, True, 0.663, 0.154955
2023/06/11 06:02:28.472, True, 0.663, 0.155184
2023/06/11 06:02:28.968, True, 0.674, 0.154574
2023/06/11 06:02:29.472, True, 0.663, 0.155032
2023/06/11 06:02:29.976, True, 0.663, 0.154498
2023/06/11 06:02:30.472, True, 0.674, 0.154421
2023/06/11 06:02:30.976, True, 0.663, 0.153964
2023/06/11 06:02:31.480, True, 0.995, 0.153124
2023/06/11 06:02:31.984, True, 0.663, 0.153582
2023/06/11 06:02:32.480, True, 0.674, 0.153277
2023/06/11 06:02:32.984, True, 0.663, 0.154116
2023/06/11 06:02:33.488, True, 0.663, 0.152743
2023/06/11 06:02:33.984, True, 0.674, 0.155108
2023/06/11 06:02:34.488, True, 0.332, 0.155718
2023/06/11 06:02:34.992, True, 0.663, 0.154879
2023/06/11 06:02:35.488, True, 0.674, 0.154955
2023/06/11 06:02:35.992, True, 0.663, 0.153811
2023/06/11 06:02:36.496, True, 0.664, 0.154116
2023/06/11 06:02:36.992, True, 0.673, 0.152895
2023/06/11 06:02:37.496, True, 0.663, 0.152743
2023/06/11 06:02:38.000, True, 0.663, 0.153506
2023/06/11 06:02:38.496, True, 0.674, 0.155261
2023/06/11 06:02:39.000, True, 0.664, 0.155108
2023/06/11 06:02:39.504, True, 0.663, 0.153201
2023/06/11 06:02:40.000, True, 0.674, 0.154955
2023/06/11 06:02:40.504, True, 0.663, 0.155489
2023/06/11 06:02:41.008, True, 0.663, 0.154955
2023/06/11 06:02:41.504, True, 0.674, 0.153735
2023/06/11 06:02:42.008, True, 0.663, 0.154879
2023/06/11 06:02:42.512, True, 0.663, 0.155032
2023/06/11 06:02:43.008, True, 0.674, 0.153506
2023/06/11 06:02:43.512, True, 0.663, 0.156100
2023/06/11 06:02:44.016, True, 0.663, 0.152514
2023/06/11 06:02:44.512, True, 0.674, 0.153506
2023/06/11 06:02:45.016, True, 0.663, 0.155261
2023/06/11 06:02:45.520, True, 0.664, 0.155413
2023/06/11 06:02:46.016, True, 0.673, 0.153964
2023/06/11 06:02:46.520, True, 0.664, 0.154192
2023/06/11 06:02:47.024, True, 0.663, 0.154498
2023/06/11 06:02:47.520, True, 0.673, 0.154192
2023/06/11 06:02:48.024, True, 0.663, 0.152819
2023/06/11 06:02:48.520, True, 0.674, 0.155337
2023/06/11 06:02:49.024, True, 0.663, 0.154345
2023/06/11 06:02:49.528, True, 0.663, 0.153964
2023/06/11 06:02:50.032, True, 0.663, 0.154192
2023/06/11 06:02:50.528, True, 0.674, 0.153124
2023/06/11 06:02:51.031, True, 0.663, 0.153201
2023/06/11 06:02:51.527, True, 0.675, 0.157168
2023/06/11 06:02:52.032, True, 0.663, 0.155261
2023/06/11 06:02:52.536, True, 0.664, 0.155032
2023/06/11 06:02:53.040, True, 0.663, 0.153124
2023/06/11 06:02:53.536, True, 0.674, 0.154269
2023/06/11 06:02:54.040, True, 0.663, 0.155566
2023/06/11 06:02:54.544, True, 0.664, 0.153658
2023/06/11 06:02:55.040, True, 0.674, 0.153506
2023/06/11 06:02:55.544, True, 0.664, 0.152972
2023/06/11 06:02:56.047, True, 0.663, 0.153811
2023/06/11 06:02:56.544, True, 0.674, 0.153201
2023/06/11 06:02:57.048, True, 0.662, 0.153964
2023/06/11 06:02:57.552, True, 0.663, 0.150988
2023/06/11 06:02:58.048, True, 0.674, 0.152972
2023/06/11 06:02:58.551, True, 0.663, 0.153201
2023/06/11 06:02:59.056, True, 0.663, 0.151827
2023/06/11 06:02:59.552, True, 0.674, 0.155642
2023/06/11 06:03:00.056, True, 0.663, 0.154116
2023/06/11 06:03:00.560, True, 0.664, 0.153964
2023/06/11 06:03:01.064, True, 0.662, 0.154040
2023/06/11 06:03:01.560, True, 0.674, 0.153048
2023/06/11 06:03:02.064, True, 0.663, 0.155032
2023/06/11 06:03:02.568, True, 0.663, 0.155566
2023/06/11 06:03:03.064, True, 0.674, 0.155032
2023/06/11 06:03:03.568, True, 0.663, 0.152361
2023/06/11 06:03:04.072, True, 0.663, 0.151827
2023/06/11 06:03:04.568, True, 0.674, 0.154192
2023/06/11 06:03:05.072, True, 0.663, 0.152667
2023/06/11 06:03:05.576, True, 0.663, 0.153048
2023/06/11 06:03:06.072, True, 0.674, 0.152209
2023/06/11 06:03:06.576, True, 0.663, 0.153277
2023/06/11 06:03:07.080, True, 0.663, 0.155108
2023/06/11 06:03:07.584, True, 0.664, 0.154803
2023/06/11 06:03:08.080, True, 0.673, 0.153429
2023/06/11 06:03:08.584, True, 0.663, 0.155489
2023/06/11 06:03:09.088, True, 0.663, 0.152361
2023/06/11 06:03:09.584, True, 0.674, 0.154803
2023/06/11 06:03:10.088, True, 0.663, 0.152285
2023/06/11 06:03:10.592, True, 0.663, 0.154574
2023/06/11 06:03:11.088, True, 0.673, 0.152667
2023/06/11 06:03:11.592, True, 0.664, 0.155337
2023/06/11 06:03:12.096, True, 0.663, 0.153048
2023/06/11 06:03:12.592, True, 0.675, 0.154345
2023/06/11 06:03:13.096, True, 0.663, 0.153964
2023/06/11 06:03:13.592, True, 0.673, 0.152285
2023/06/11 06:03:14.096, True, 0.663, 0.153429
2023/06/11 06:03:14.600, True, 0.664, 0.153964
2023/06/11 06:03:15.104, True, 0.663, 0.153201
2023/06/11 06:03:15.600, True, 0.673, 0.154040
2023/06/11 06:03:16.104, True, 0.664, 0.153964
2023/06/11 06:03:16.608, True, 0.663, 0.150759
2023/06/11 06:03:17.104, True, 0.674, 0.151904
2023/06/11 06:03:17.608, True, 0.662, 0.150683
2023/06/11 06:03:18.112, True, 0.663, 0.151141
2023/06/11 06:03:18.616, True, 0.664, 0.149996
2023/06/11 06:03:19.112, True, 0.673, 0.152514
2023/06/11 06:03:19.616, True, 0.663, 0.153811
2023/06/11 06:03:20.120, True, 0.663, 0.150988
2023/06/11 06:03:20.616, True, 0.674, 0.152667
2023/06/11 06:03:21.120, True, 0.664, 0.152590
2023/06/11 06:03:21.624, True, 0.663, 0.152361
2023/06/11 06:03:22.120, True, 0.674, 0.153277
2023/06/11 06:03:22.624, True, 0.665, 0.153201
2023/06/11 06:03:23.127, True, 0.662, 0.153735
2023/06/11 06:03:23.624, True, 0.674, 0.152132
2023/06/11 06:03:24.128, True, 0.663, 0.153353
2023/06/11 06:03:24.632, True, 0.663, 0.152895
2023/06/11 06:03:25.136, True, 0.664, 0.151980
2023/06/11 06:03:25.632, True, 0.673, 0.151217
2023/06/11 06:03:26.136, True, 0.663, 0.152514
2023/06/11 06:03:26.640, True, 0.663, 0.152743
2023/06/11 06:03:27.136, True, 0.674, 0.150301
2023/06/11 06:03:27.640, True, 0.663, 0.152743
2023/06/11 06:03:28.136, True, 0.674, 0.151980
2023/06/11 06:03:28.640, True, 0.664, 0.151751
2023/06/11 06:03:29.144, True, 0.662, 0.152972
2023/06/11 06:03:29.640, True, 0.674, 0.152667
2023/06/11 06:03:30.144, True, 0.663, 0.152209
2023/06/11 06:03:30.648, True, 0.663, 0.153429
2023/06/11 06:03:31.144, True, 0.675, 0.153887
2023/06/11 06:03:31.648, True, 0.663, 0.162432
2023/06/11 06:03:32.152, True, 0.663, 0.152514
2023/06/11 06:03:32.648, True, 0.674, 0.153735
2023/06/11 06:03:33.152, True, 0.663, 0.151904
2023/06/11 06:03:33.656, True, 0.663, 0.153048
2023/06/11 06:03:34.152, True, 0.337, 0.152209
2023/06/11 06:03:34.656, True, 0.995, 0.152972
2023/06/11 06:03:35.160, True, 0.663, 0.152285
2023/06/11 06:03:35.664, True, 0.332, 0.152285
2023/06/11 06:03:36.160, True, 0.674, 0.153201
2023/06/11 06:03:36.664, True, 0.663, 0.153124
2023/06/11 06:03:37.160, True, 0.674, 0.152667
2023/06/11 06:03:37.664, True, 0.663, 0.152056
2023/06/11 06:03:38.168, True, 0.663, 0.150759
2023/06/11 06:03:38.664, True, 0.674, 0.152438
2023/06/11 06:03:39.168, True, 0.663, 0.153811
2023/06/11 06:03:39.672, True, 0.995, 0.151904
2023/06/11 06:03:40.176, True, 0.664, 0.151446
2023/06/11 06:03:40.672, True, 0.673, 0.153124
2023/06/11 06:03:41.176, True, 0.663, 0.152819
2023/06/11 06:03:41.672, True, 0.674, 0.154421
2023/06/11 06:03:42.176, True, 0.663, 0.152056
2023/06/11 06:03:42.680, True, 0.663, 0.152132
2023/06/11 06:03:43.176, True, 0.674, 0.154726
2023/06/11 06:03:43.680, True, 0.663, 0.152743
2023/06/11 06:03:44.184, True, 0.663, 0.151446
2023/06/11 06:03:44.680, True, 0.337, 0.151446
2023/06/11 06:03:45.184, True, 0.663, 0.153887
2023/06/11 06:03:45.680, True, 0.674, 0.152590
2023/06/11 06:03:46.184, True, 0.663, 0.153506
2023/06/11 06:03:46.688, True, 0.663, 0.151522
2023/06/11 06:03:47.184, True, 0.674, 0.152972
2023/06/11 06:03:47.688, True, 0.995, 0.153582
2023/06/11 06:03:48.192, True, 0.663, 0.154040
2023/06/11 06:03:48.696, True, 0.663, 0.152819
2023/06/11 06:03:49.192, True, 0.675, 0.152514
2023/06/11 06:03:49.696, True, 0.662, 0.153048
2023/06/11 06:03:50.200, True, 0.663, 0.152132
2023/06/11 06:03:50.695, True, 0.674, 0.151064
2023/06/11 06:03:51.200, True, 0.663, 0.153201
2023/06/11 06:03:51.696, True, 0.674, 0.152972
2023/06/11 06:03:52.200, True, 0.663, 0.151827
2023/06/11 06:03:52.704, True, 0.663, 0.153048
2023/06/11 06:03:53.200, True, 0.674, 0.153048
2023/06/11 06:03:53.704, True, 0.663, 0.150683
2023/06/11 06:03:54.208, True, 0.663, 0.152132
2023/06/11 06:03:54.712, True, 0.663, 0.152514
2023/06/11 06:03:55.208, True, 0.674, 0.152438
2023/06/11 06:03:55.712, True, 0.663, 0.151522
2023/06/11 06:03:56.216, True, 0.663, 0.152438
2023/06/11 06:03:56.712, True, 0.674, 0.153582
2023/06/11 06:03:57.216, True, 0.663, 0.150988
2023/06/11 06:03:57.712, True, 0.674, 0.151446
2023/06/11 06:03:58.216, True, 0.663, 0.151751
2023/06/11 06:03:58.720, True, 0.663, 0.153735
2023/06/11 06:03:59.215, True, 0.674, 0.151064
2023/06/11 06:03:59.720, True, 0.663, 0.153201
2023/06/11 06:04:00.224, True, 0.663, 0.152895
2023/06/11 06:04:00.720, True, 0.674, 0.149538
2023/06/11 06:04:01.224, True, 0.663, 0.151751
2023/06/11 06:04:01.728, True, 0.663, 0.151751
2023/06/11 06:04:02.224, True, 0.674, 0.151751
2023/06/11 06:04:02.727, True, 0.663, 0.150607
2023/06/11 06:04:03.232, True, 0.663, 0.151751
2023/06/11 06:04:03.728, True, 0.674, 0.152438
2023/06/11 06:04:04.232, True, 0.663, 0.150835
2023/06/11 06:04:04.736, True, 0.663, 0.152514
2023/06/11 06:04:05.232, True, 0.674, 0.153429
2023/06/11 06:04:05.736, True, 0.663, 0.150225
2023/06/11 06:04:06.240, True, 0.663, 0.151141
2023/06/11 06:04:06.736, True, 0.674, 0.151598
2023/06/11 06:04:07.240, True, 0.663, 0.150988
2023/06/11 06:04:07.744, True, 0.332, 0.151446
2023/06/11 06:04:08.240, True, 0.674, 0.150835
2023/06/11 06:04:08.744, True, 0.664, 0.152132
2023/06/11 06:04:09.248, True, 0.663, 0.151904
2023/06/11 06:04:09.744, True, 0.674, 0.150301
2023/06/11 06:04:10.248, True, 0.663, 0.152209
2023/06/11 06:04:10.751, True, 0.663, 0.151522